GFSNE_850_thetae_000.txt.gz
Theta_e
291 291 292 292 293 293 294 294 294 295 296 296 297 298 297 300 301 300 301 301 300 300 299 301 304 303 303 305 314 316 317 318 316 318 318 315 314 312
292 292 292 291 291 292 292 292 292 292 294 293 294 294 295 295 297 298 299 298 299 299 298 296 296 299 301 302 305 311 315 315 319 317 318 317 313 313
291 291 291 291 291 291 291 291 291 292 293 293 293 294 294 295 295 295 296 296 297 298 298 297 296 295 296 299 302 303 306 311 314 317 316 317 316 313
288 288 288 289 290 290 290 290 291 291 291 292 292 292 292 293 294 294 295 296 295 296 297 296 295 295 295 295 297 298 300 305 310 313 317 316 316 315
289 289 289 289 289 289 289 290 290 290 291 291 292 292 292 292 293 293 294 294 295 295 295 295 296 295 294 293 294 295 297 298 302 308 312 317 316 316
289 289 288 288 288 289 289 289 289 289 289 289 290 290 290 291 291 291 292 292 293 293 294 296 295 295 295 294 295 296 297 296 297 301 307 311 315 317
288 287 287 287 287 287 287 287 287 287 287 286 286 287 287 288 288 289 290 290 291 294 294 295 296 296 295 295 295 296 296 296 296 298 299 307 311 315
286 286 285 285 285 285 285 284 284 284 284 284 285 285 285 285 286 287 288 289 290 292 295 296 296 296 295 295 295 295 296 297 297 297 297 303 308 310
283 283 283 283 283 284 284 284 284 285 284 284 284 284 285 285 285 286 287 287 288 289 292 294 296 296 295 295 295 295 296 297 297 297 296 297 306 307
283 283 283 283 283 283 284 285 284 284 285 285 285 285 285 285 285 285 286 286 286 287 289 290 292 295 295 295 295 295 296 297 297 295 297 297 304 306
282 282 282 282 283 283 283 283 283 284 284 284 284 285 285 285 285 285 286 286 286 286 287 288 289 291 294 294 296 296 296 295 295 294 300 299 303 304
282 282 283 283 283 282 283 283 283 284 284 284 285 284 285 285 285 286 286 286 287 287 287 287 289 290 291 293 294 296 295 295 295 294 298 300 302 304
283 283 283 283 283 283 283 283 283 284 284 284 284 285 285 285 286 285 286 286 286 287 287 288 288 289 291 293 293 294 294 294 294 297 299 300 302 302
283 283 282 283 283 284 284 284 284 284 284 284 284 284 285 285 286 286 286 286 286 287 287 287 287 288 290 292 292 292 292 293 293 293 295 299 302 302
283 282 282 282 282 283 284 284 284 285 285 285 285 285 285 285 285 286 286 286 286 287 287 287 287 287 288 288 289 290 291 293 293 294 295 296 299 300
282 281 281 281 282 282 283 284 285 286 286 286 286 286 286 285 285 285 285 286 286 287 287 288 288 288 288 289 290 291 291 291 293 293 293 293 295 297
282 281 281 281 281 282 284 285 287 287 286 286 286 286 286 285 285 285 285 286 287 288 289 289 289 289 288 289 290 291 293 292 291 291 291 291 292 293
282 280 280 280 280 281 283 284 285 286 287 287 287 286 286 286 286 286 286 287 287 288 288 289 289 289 288 289 291 292 292 291 289 289 289 288 289 289
280 280 280 279 280 280 281 282 284 285 286 287 287 286 287 287 287 287 287 288 288 288 288 288 289 289 290 290 291 291 290 289 288 287 287 287 287 287
280 280 280 279 279 280 280 281 282 284 285 285 286 287 288 288 288 288 288 288 288 288 289 288 289 289 289 289 289 288 287 286 285 285 286 286 286 285
280 280 279 279 279 279 280 280 280 281 283 284 285 286 287 286 287 287 287 287 287 287 288 288 287 286 286 286 286 285 284 283 283 284 284 284 284 283
279 279 279 279 279 279 280 280 280 280 281 282 283 284 285 285 285 285 285 285 285 285 285 284 284 284 284 285 285 284 281 280 281 282 282 283 283 282
279 279 279 279 279 279 279 280 280 280 280 280 281 281 282 283 284 284 284 283 283 283 283 283 283 282 283 283 283 283 281 280 280 280 281 281 281 282

GFSNE_850_thetae_003.txt.gz
Theta_e
293 292 292 292 292 291 291 291 291 293 292 292 292 292 293 294 297 298 299 298 299 299 300 298 299 297 298 301 302 305 312 314 315 320 319 319 315 314
292 292 292 292 291 291 291 291 291 291 292 292 292 292 293 294 296 295 295 295 296 297 299 298 297 297 296 295 296 300 303 308 315 315 320 317 317 315
291 290 289 288 288 288 288 289 289 290 290 291 291 291 292 292 292 292 294 294 295 296 296 296 297 296 296 295 295 295 296 299 306 313 314 319 318 317
288 288 288 288 288 288 289 289 288 289 289 290 291 291 291 291 291 291 291 292 293 294 296 296 295 295 296 295 295 294 294 295 298 302 311 314 317 317
288 287 288 288 288 288 288 288 288 289 289 290 290 290 290 290 290 290 291 290 290 292 293 294 294 294 294 296 295 294 293 294 295 297 302 312 314 313
287 287 288 288 287 287 287 287 287 287 287 287 287 287 287 288 288 289 289 288 288 289 290 291 292 292 295 294 295 295 295 296 298 296 297 301 310 313
287 287 286 286 286 286 285 285 285 285 286 286 285 285 285 286 286 287 287 287 287 287 288 289 289 290 293 296 296 295 295 295 295 296 295 297 301 307
285 284 284 284 284 283 283 283 283 283 283 284 284 284 284 284 284 285 285 286 287 287 288 288 289 292 294 295 295 295 295 295 295 296 297 297 298 300
283 283 283 283 283 283 283 283 283 283 283 284 284 284 284 284 284 284 285 285 286 287 288 289 290 293 295 296 296 296 295 295 294 295 296 296 297 297
282 282 282 282 282 282 282 282 282 283 283 284 284 284 284 284 284 284 284 285 285 285 286 287 287 288 291 294 295 295 295 294 295 296 296 296 296 296
282 282 282 282 282 282 282 282 282 282 282 283 283 284 284 284 284 285 285 285 285 285 286 286 287 287 288 290 292 293 294 296 296 295 294 295 295 295
282 282 283 283 282 282 282 282 283 283 282 282 283 284 284 284 284 284 285 285 285 285 286 286 287 287 287 289 290 291 293 294 295 295 294 295 294 299
282 283 282 282 282 282 283 283 284 284 283 283 283 283 284 284 284 284 285 285 286 286 286 286 287 288 287 289 291 293 293 293 293 293 293 293 297 297
283 283 282 281 281 281 282 283 283 284 284 284 284 284 284 284 284 284 285 286 286 285 286 286 286 287 287 288 289 290 291 292 292 292 293 293 293 295
283 282 281 281 281 281 282 282 283 283 284 284 284 284 284 285 284 284 285 286 286 286 286 286 287 287 287 287 287 288 289 290 291 291 292 292 294 295
282 282 281 280 280 281 282 283 284 285 285 286 285 285 285 284 284 285 285 285 285 286 286 286 287 287 287 287 287 288 288 288 290 291 292 292 292 293
281 281 280 280 280 281 282 283 284 285 286 286 286 285 285 285 285 285 284 285 285 285 286 287 288 287 287 287 288 288 288 290 291 292 292 292 291 291
281 280 279 279 279 280 281 282 283 285 286 286 287 286 286 285 285 285 285 285 285 286 287 287 288 287 287 287 287 288 288 289 290 291 291 290 289 289
280 279 279 279 279 279 279 280 282 283 284 285 286 285 286 286 286 286 286 287 287 287 287 287 287 286 286 286 288 288 288 289 289 289 290 288 287 287
279 279 279 279 279 279 279 279 280 282 284 284 285 286 287 287 287 287 287 287 287 287 287 287 286 285 285 286 287 286 287 287 285 287 287 286 286 286
279 278 279 279 279 279 279 279 279 280 281 283 284 285 285 286 285 286 286 286 286 286 286 285 285 285 284 285 285 284 285 283 283 284 284 285 285 285
278 278 278 279 279 279 279 279 279 280 280 281 281 282 283 284 284 284 284 284 284 284 285 284 284 283 284 284 284 284 283 283 282 282 283 283 283 283
278 278 278 278 279 279 279 279 279 279 280 280 280 280 281 282 282 283 283 283 283 283 283 283 283 283 283 283 283 282 281 281 281 281 281 282 282 282

GFSNE_850_thetae_006.txt.gz
Theta_e
294 294 295 294 292 292 291 291 291 291 291 291 290 290 290 290 290 291 293 294 296 298 297 300 299 297 298 299 302 308 305 304 309 313 320 320 320 319
292 292 291 290 289 289 289 288 288 288 289 290 290 290 290 291 291 292 294 295 294 294 296 297 298 297 297 297 296 297 297 300 303 308 313 317 319 319
290 289 288 288 287 287 287 287 288 288 289 289 289 289 289 290 290 290 291 292 292 292 293 295 296 296 296 296 296 295 296 295 296 301 310 313 316 319
288 287 287 287 287 287 287 288 288 288 289 289 289 289 289 289 290 290 291 289 289 290 290 292 294 295 296 295 296 296 295 295 294 295 299 309 314 315
286 286 286 287 287 287 287 287 287 287 287 287 287 287 288 288 288 289 289 289 289 289 289 289 290 293 294 294 294 295 295 294 294 294 295 297 307 314
286 286 287 287 286 286 286 286 285 285 285 285 285 286 286 286 286 286 287 287 287 287 287 288 288 289 291 292 292 294 294 295 294 295 294 294 297 307
285 285 285 284 284 283 283 283 283 283 284 284 285 285 285 285 285 285 285 285 285 286 286 287 287 287 288 289 290 292 295 295 294 295 295 294 294 297
284 284 283 283 284 283 283 283 283 283 283 283 283 283 283 283 284 284 284 284 285 285 286 287 287 288 288 288 289 290 294 296 295 295 295 296 295 295
283 282 283 283 283 282 283 282 282 282 282 283 283 283 283 283 284 284 284 284 284 285 285 286 287 288 288 290 294 294 295 295 295 295 295 294 296 297
282 282 283 283 283 283 282 282 282 282 282 282 282 283 283 283 284 284 284 284 284 284 284 285 286 287 287 289 291 294 295 296 295 295 294 294 295 296
282 283 282 282 282 282 281 282 282 282 282 282 282 282 283 283 284 284 284 284 284 284 284 285 285 285 286 287 288 290 295 294 294 295 295 296 296 296
282 282 282 283 282 282 282 282 282 283 283 283 284 283 282 283 284 284 284 284 284 284 284 285 285 286 286 287 288 289 293 292 292 293 295 295 294 294
281 282 282 282 282 281 281 281 282 282 283 283 284 284 283 283 283 284 284 284 284 285 285 285 285 286 287 287 288 289 290 290 292 293 292 292 293 293
282 282 282 282 281 280 280 281 281 282 283 283 283 284 284 284 284 284 284 284 284 284 285 286 286 286 286 287 287 287 289 291 291 291 291 291 291 292
282 282 282 281 280 280 281 282 283 283 284 284 284 285 285 285 284 284 284 284 284 285 285 285 285 285 286 286 286 287 287 289 290 290 290 291 290 292
281 281 281 280 280 280 281 282 283 284 284 285 285 286 285 284 284 284 284 284 285 285 286 286 286 286 286 286 286 286 287 287 288 288 289 290 292 292
280 281 280 280 280 280 281 282 283 284 285 286 286 286 285 285 284 284 284 284 285 285 285 285 285 286 286 286 286 287 287 287 287 288 288 290 291 291
280 280 279 279 279 278 279 281 282 283 284 285 285 285 285 286 285 285 284 284 284 285 285 285 286 286 286 286 286 286 286 287 287 288 288 290 290 289
280 279 279 278 278 278 278 279 280 281 282 284 285 285 286 286 286 286 286 286 286 286 286 286 286 285 285 285 286 286 286 287 287 288 288 289 288 288
279 278 278 278 278 278 278 278 279 280 281 282 284 285 285 285 286 286 286 286 286 286 285 285 285 284 284 285 285 285 285 285 286 286 286 286 286 286
278 278 278 278 278 278 278 278 278 279 279 281 282 283 284 284 285 285 285 285 285 285 285 285 285 285 285 285 285 284 284 284 284 284 284 284 284 285
277 278 278 278 278 278 278 278 279 279 279 279 280 281 282 282 283 283 284 284 284 284 284 284 284 284 284 284 284 283 282 282 282 282 282 283 283 283
277 277 277 278 278 278 277 277 278 278 278 278 279 279 280 281 281 282 282 282 282 282 282 282 282 282 283 283 283 282 281 281 281 281 281 282 282 282

GFSNE_850_thetae_009.txt.gz
Theta_e
296 294 291 292 291 291 291 291 292 293 293 293 293 292 292 292 292 292 290 291 293 295 297 297 298 301 298 297 297 299 300 304 310 314 315 317 318 322
291 290 290 289 289 288 288 289 290 290 290 290 290 291 291 291 291 291 292 289 291 294 294 295 297 298 297 297 296 297 298 298 302 309 311 315 316 317
289 289 288 288 287 287 288 289 289 289 289 290 290 290 290 290 291 291 292 292 292 291 291 293 293 296 297 296 296 296 297 296 297 301 305 308 315 313
288 287 286 286 286 286 287 288 288 289 289 289 289 290 290 290 291 291 291 292 292 292 289 289 291 292 294 296 296 295 296 296 296 298 296 298 304 310
286 286 286 286 286 287 287 287 287 287 287 287 287 288 288 288 289 289 289 290 290 289 288 288 288 289 290 291 294 296 295 296 296 295 297 295 295 303
286 286 286 286 285 285 284 285 285 285 285 286 286 286 287 287 287 288 288 288 288 288 288 287 288 287 288 289 290 293 295 294 294 295 295 295 294 294
285 285 284 284 283 283 283 284 285 285 285 285 285 286 286 286 286 287 287 288 288 288 288 288 288 288 287 287 288 289 291 293 293 294 294 294 294 294
284 283 283 282 283 283 284 283 283 283 284 284 285 285 285 285 285 285 286 286 286 287 287 287 287 288 288 288 287 287 288 289 291 295 295 294 294 294
282 282 282 282 282 282 282 282 283 282 282 282 283 284 284 285 285 285 285 285 286 286 286 286 287 287 288 289 288 288 288 288 289 294 296 295 294 294
281 282 282 282 282 282 282 282 282 283 283 283 283 283 283 284 284 284 284 285 285 285 286 285 286 286 286 288 288 289 291 292 292 292 295 295 295 294
281 281 281 281 282 282 282 282 282 283 283 282 282 283 283 283 283 283 283 284 284 285 285 285 286 285 286 286 286 287 289 291 293 295 295 295 295 294
281 281 281 282 282 282 282 282 282 282 282 283 283 284 283 284 284 283 283 284 285 285 285 286 286 286 287 287 286 287 287 290 292 293 293 294 295 295
281 281 282 282 282 281 281 281 281 280 281 281 282 283 284 284 283 283 283 284 285 285 285 286 286 286 286 287 288 288 288 288 290 292 291 293 294 294
281 282 282 281 281 281 280 281 281 282 282 283 283 283 283 284 284 284 284 284 284 284 285 285 285 286 286 287 287 287 287 288 289 291 292 291 291 291
281 281 281 281 280 280 281 281 282 283 283 283 283 284 284 285 284 284 284 284 284 284 284 284 284 285 286 286 287 288 287 287 288 291 290 290 291 291
280 280 280 280 280 280 280 281 282 282 283 284 284 285 285 285 284 284 284 284 284 284 284 285 285 285 286 286 286 286 287 287 287 288 289 289 290 291
279 280 280 280 279 279 278 280 281 282 283 284 285 285 285 285 284 284 284 284 284 285 285 285 286 286 286 286 286 286 287 287 287 287 287 288 288 289
279 279 279 279 279 278 277 278 280 281 283 284 284 285 285 285 285 285 284 284 285 285 285 285 285 286 286 286 286 286 287 287 287 287 287 287 288 288
278 278 278 278 278 277 278 278 279 280 281 283 284 284 285 285 285 285 285 285 285 285 285 285 286 285 286 286 285 286 286 285 286 287 287 287 288 289
277 277 278 278 278 278 278 278 279 279 280 281 282 283 284 285 285 285 285 285 285 285 285 285 285 285 285 286 285 285 286 286 286 286 286 287 288 289
277 277 277 277 277 277 278 278 278 279 279 280 280 281 282 283 284 284 284 285 285 284 283 284 285 284 284 285 284 284 284 284 284 284 285 285 286 286
276 277 277 277 277 276 276 277 278 278 279 279 279 280 281 281 282 282 283 283 284 284 284 284 283 283 283 283 282 283 282 283 283 283 283 284 283 284
274 275 275 276 276 276 276 276 276 277 278 278 278 279 279 280 280 281 281 282 282 282 282 282 282 282 283 283 281 282 282 281 281 281 282 282 283 283

GFSNE_850_thetae_015.txt.gz
Theta_e
295 294 294 294 294 293 292 292 292 294 295 296 296 297 298 299 298 298 297 297 297 295 295 293 295 300 301 303 304 303 303 303 302 302 302 302 302 303
295 295 295 294 294 294 294 293 293 293 293 293 293 294 294 294 295 295 295 295 294 294 294 294 293 295 297 299 301 301 301 301 301 301 301 300 300 301
293 293 293 293 292 291 291 292 293 292 292 292 292 292 293 293 293 293 294 294 294 294 293 293 293 291 293 295 297 300 300 299 298 298 299 299 299 299
293 293 292 292 291 291 291 291 291 291 291 291 291 292 292 292 292 293 293 293 293 294 293 293 293 293 291 291 293 295 297 298 297 297 297 298 298 298
291 291 290 290 290 290 290 290 290 290 290 290 290 290 290 290 291 291 292 292 292 293 293 293 292 292 292 292 291 290 292 294 296 297 296 296 297 297
289 289 289 289 289 289 289 289 288 288 288 288 288 289 289 290 290 290 290 291 291 292 292 292 292 292 292 291 291 290 289 289 292 294 297 297 296 296
287 288 288 288 288 287 286 286 286 286 287 287 288 289 289 290 290 290 290 291 291 291 291 292 292 292 291 291 291 291 290 289 288 288 290 293 295 297
286 287 287 287 287 286 285 285 284 284 285 286 287 287 288 288 288 289 289 290 290 289 289 289 290 291 291 291 292 292 291 291 291 289 288 288 291 293
286 286 286 286 286 286 286 286 285 284 284 284 284 285 285 286 287 287 287 288 288 289 288 288 289 290 290 290 290 290 291 290 290 290 290 289 288 289
284 285 285 285 285 285 284 284 284 284 285 285 284 285 285 286 286 286 286 286 287 287 288 288 287 287 288 288 288 288 289 290 290 290 290 289 289 288
282 283 283 283 283 283 283 283 284 284 284 285 284 284 284 284 284 284 284 285 286 287 286 287 287 287 287 287 287 287 287 287 288 288 289 289 289 288
281 282 282 283 283 283 283 283 283 283 283 283 284 284 284 284 284 284 284 284 284 285 286 287 287 287 288 288 287 287 288 288 288 287 288 288 290 291
281 281 282 284 283 283 283 282 282 281 281 281 282 283 284 284 285 285 286 285 285 285 286 286 287 288 288 288 288 288 289 289 289 289 289 287 288 290
280 281 282 282 282 282 281 281 280 281 282 282 283 284 285 285 285 286 286 286 286 286 286 286 286 287 288 288 289 288 289 288 289 289 288 289 288 288
280 280 281 281 281 281 280 280 280 282 282 283 283 284 285 285 286 286 286 286 286 286 286 286 286 287 287 287 288 288 289 290 289 289 288 289 290 289
279 280 280 280 280 281 281 281 281 281 282 282 283 284 284 285 286 287 286 286 286 286 286 286 285 285 286 286 286 287 287 289 289 288 288 288 290 291
279 280 279 279 279 280 280 280 280 281 281 281 282 283 284 285 286 287 286 286 287 287 287 286 286 286 285 286 286 287 287 288 288 289 289 288 289 289
279 278 278 278 278 279 279 279 279 280 280 281 282 282 283 285 286 286 286 286 287 287 288 287 288 287 286 286 286 286 286 287 287 289 289 289 289 289
277 277 277 277 277 278 278 278 278 279 279 280 280 281 282 283 285 286 286 287 287 287 288 288 287 287 288 289 289 287 287 287 287 287 288 289 288 288
277 276 276 276 276 277 277 277 278 278 279 279 280 280 281 282 283 284 285 285 286 287 287 286 286 287 287 287 287 286 286 286 285 286 287 288 288 287
275 275 275 275 275 275 276 276 277 278 278 278 279 279 280 281 282 282 283 284 285 285 286 284 285 285 285 285 286 286 285 285 285 284 286 287 286 286
274 274 274 274 274 274 275 275 277 277 277 277 278 279 280 280 281 281 282 282 283 283 283 283 283 283 284 284 285 285 284 283 283 283 284 284 285 286
273 273 274 274 274 274 274 274 275 275 276 276 276 278 279 279 280 280 281 281 281 282 282 283 283 283 283 283 283 284 283 282 282 283 282 282 283 284